Regional Weather Roundup
Issued by NWS Goodland, KS

Home | Current Version | Previous Version | Text Only | Print | Product List | Glossary On
Versions: 1 2 3 4 5 6 7 8 9 10 11 12 13 14 15 16 17 18 19 20 21 22 23 24 25 26 27 28 29 30 31 32 33 34 35 36 37 38 39 40 41 42 43 44 45 46 47 48 49 50
000
ASUS43 KGLD 221608
RWRGLD

GOODLAND FORECAST AREA HOURLY WEATHER ROUNDUP
NATIONAL WEATHER SERVICE GOODLAND KS
900 AM MST WED FEB 22 2017

...OFFICIAL OBSERVATIONS...

CITY           SKY/WX    TMP DP  RH WIND       PRES   REMARKS
GOODLAND KS    SUNNY     54  31  41 N16       29.86S
HILL CITY KS   SUNNY     60  35  39 NW12      29.81R
IMPERIAL NEB   SUNNY     49  31  49 W12       29.85F
MCCOOK NEB     SUNNY     56  36  47 NW17      29.81S
AKRON CO       SUNNY     46  21  37 NW12      29.89S
BURLINGTON CO  SUNNY     53  29  39 NW12      29.89F
LIMON CO       SUNNY     46  26  45 NE13      29.92S
$$

...UNOFFICIAL OBSERVATIONS...

CITY           SKY/WX    TMP DP  RH WIND       PRES   REMARKS
LENORA KS        N/A     58  32  37 NW10        N/A
NORTON KS      SUNNY     57  28  33 W14       29.79
SHARON SPRINGS   N/A     55  33  43 N15         N/A
TRENTON NEB      N/A     54  32  43 NW10        N/A
KIT CARSON CO    N/A     51  29  42 MISG        N/A
YUMA CO        FAIR      46  27  46 W7        29.88F
$$



USA.gov is the U.S. government's official web portal to all federal, state and local government web resources and services.